Theta_e
305 305 306 306 307 307 307 307 306 306 305 305 305 305 305 305 305 301 298 300 294 285 287 292 293 287 286 286 283 285 283 283 280 277 274 275 274 276 276 279 278 277 273 268 269 263 266 284 284 279 280 283 285 284
305 305 305 306 306 306 306 305 305 305 304 305 304 305 305 304 305 304 297 300 299 291 289 294 295 295 293 291 287 285 283 283 283 277 276 276 277 273 276 271 280 274 277 274 276 273 282 285 284 286 285 284 285 285
304 305 306 306 306 305 305 305 304 304 304 304 304 304 305 305 305 303 298 297 296 291 290 290 290 295 296 296 295 286 286 289 285 285 280 277 278 277 273 275 277 281 284 278 279 283 283 285 288 288 288 286 287 286
305 305 305 305 305 304 304 304 303 303 303 303 304 304 304 305 305 303 298 297 296 291 285 287 295 293 297 296 295 293 291 290 288 285 281 280 278 281 277 280 279 281 283 281 280 283 284 287 288 288 288 288 287 287
305 304 304 304 304 304 303 303 303 302 303 303 303 304 304 304 303 300 298 297 297 292 284 285 291 294 296 296 294 293 291 287 283 281 279 278 280 280 279 280 277 282 281 279 278 284 284 285 288 289 287 287 288 286
304 304 303 303 303 303 302 302 302 302 303 303 303 304 304 303 303 298 291 297 296 295 286 281 288 291 293 293 292 291 290 286 283 281 280 281 285 282 278 276 282 284 285 285 284 287 287 288 289 289 287 287 288 287
303 303 302 302 302 302 302 301 302 302 302 302 302 303 302 300 297 292 290 295 298 295 287 282 283 289 292 290 288 288 287 286 284 282 280 281 282 282 278 277 283 286 288 288 288 287 284 286 286 288 288 288 288 286
302 302 302 301 301 301 301 301 301 302 302 302 301 301 301 301 298 293 295 300 297 291 289 281 281 283 289 283 283 285 283 283 283 281 281 281 282 281 279 283 285 287 288 288 288 287 286 288 287 286 287 285 284 283
301 301 301 301 300 300 300 300 300 301 301 301 301 301 297 293 290 292 300 298 293 291 282 281 279 277 287 283 283 283 283 278 282 280 279 281 279 279 283 284 286 287 286 287 287 286 287 286 285 286 285 284 282 282
300 300 300 300 300 299 299 300 301 301 301 300 297 290 285 289 298 297 291 284 286 286 285 281 282 279 284 281 279 280 279 279 277 281 282 279 279 284 286 287 288 288 288 288 285 283 284 284 285 285 284 284 284 283
300 300 299 299 299 299 300 300 301 300 300 292 288 285 290 297 291 285 280 279 280 279 281 281 282 280 285 280 279 279 277 279 275 279 279 278 277 282 287 287 288 289 289 288 288 288 288 288 286 285 284 284 284 283
299 299 299 299 299 299 300 300 299 296 292 292 291 293 292 288 284 278 275 280 280 277 281 281 281 284 283 284 281 279 279 279 277 280 276 273 280 285 286 286 288 288 288 288 289 289 289 288 287 286 285 284 283 283
299 299 299 299 299 300 300 299 299 298 298 294 290 286 283 279 271 273 270 278 275 280 281 282 282 283 284 283 280 280 275 274 281 273 274 278 281 286 286 286 286 288 288 288 289 289 288 288 287 286 285 284 283 282
298 299 299 299 298 298 299 299 299 297 292 285 281 272 276 272 277 279 278 279 281 280 284 284 279 281 280 279 278 276 279 280 272 268 275 278 282 285 286 286 287 286 286 287 288 288 287 286 285 284 282 281 280 280
298 298 298 298 299 298 298 298 297 293 288 282 281 272 276 280 281 281 281 282 282 287 284 281 280 281 278 277 279 279 276 272 275 275 276 280 284 286 286 286 286 285 283 285 286 286 282 281 283 281 280 283 282 276
296 295 294 298 298 298 297 296 294 291 286 283 282 279 281 280 279 278 280 281 284 286 283 282 279 276 277 279 278 274 276 272 274 278 280 283 285 286 286 287 287 286 286 286 287 286 285 282 282 285 284 283 278 278
294 290 296 297 297 297 296 291 289 286 283 281 279 281 282 282 281 280 281 282 286 287 277 279 274 276 278 274 273 278 275 276 279 280 281 284 286 286 286 286 285 286 286 286 287 287 287 287 285 285 285 285 283 282
289 294 296 296 294 293 290 289 285 282 280 281 279 280 282 282 280 282 282 283 284 282 282 281 282 279 274 277 275 278 278 278 280 282 282 285 286 286 287 287 287 288 287 287 287 286 286 285 285 285 285 285 285 283
292 293 296 296 293 288 284 284 285 279 280 281 282 282 283 281 282 284 284 286 285 286 285 281 280 279 279 280 279 280 281 282 282 282 283 286 287 287 287 288 288 287 287 286 286 286 285 285 285 284 284 283 283 283
296 296 295 295 293 285 283 282 284 281 279 281 282 282 282 282 282 282 283 284 285 284 283 281 281 281 281 282 282 283 283 283 283 281 282 283 285 286 287 287 287 287 286 285 285 282 284 283 284 284 283 283 281 281
292 291 293 291 288 287 283 281 280 281 281 280 282 281 279 281 281 279 281 283 281 281 280 281 281 283 284 286 286 286 284 285 284 284 284 281 283 285 285 286 286 284 285 284 283 282 280 281 280 283 278 278 277 279
290 292 286 288 283 284 282 283 281 281 281 280 280 281 279 275 277 279 281 279 279 281 281 281 283 283 284 286 286 287 288 289 288 284 282 283 282 283 284 284 284 283 282 282 282 281 281 279 278 280 281 282 278 278
291 289 286 285 279 278 278 283 280 280 277 279 280 279 278 277 279 282 276 279 280 281 282 283 285 286 285 286 286 287 288 288 285 285 285 284 285 282 281 282 283 282 279 279 279 281 283 280 281 282 282 281 278 270
291 283 279 279 278 274 281 278 281 280 280 278 278 276 278 278 281 278 277 279 281 280 282 284 284 283 283 284 282 284 285 285 285 284 284 284 282 282 282 283 283 283 283 282 280 283 282 281 280 281 281 281 281 274
280 279 279 276 279 278 276 277 277 276 270 275 276 273 275 280 275 275 277 278 279 280 281 282 282 283 283 281 279 282 285 284 283 283 283 284 283 279 279 279 279 280 283 284 283 283 282 282 281 280 281 281 281 281
276 279 276 275 275 274 276 272 271 272 274 273 276 279 279 274 271 271 277 279 278 280 278 281 282 281 281 282 281 282 283 284 283 282 283 284 285 283 283 281 280 280 282 280 284 282 282 283 283 282 281 281 281 281
276 276 280 282 281 280 276 277 280 276 271 271 275 273 273 268 268 274 279 280 280 281 282 283 283 283 283 283 284 285 285 284 284 284 284 284 286 287 286 284 282 285 285 281 280 281 281 282 284 283 282 281 281 280
279 279 274 277 276 278 272 273 273 273 274 278 277 272 272 272 273 279 281 282 282 283 283 282 283 284 283 283 282 280 278 277 280 281 281 281 280 278 279 280 282 285 285 282 281 281 282 285 284 283 282 281 277 275
278 280 279 272 272 273 273 274 275 278 281 280 276 274 275 280 281 281 282 282 282 283 281 279 280 283 282 282 278 277 277 282 281 276 278 274 274 276 282 283 284 285 286 286 283 279 280 281 282 281 281 281 281 279
274 281 273 268 272 272 275 278 278 279 281 281 281 280 279 278 278 280 281 282 282 282 281 277 275 283 282 282 282 281 280 279 274 280 282 279 281 279 283 281 277 279 279 279 277 274 277 274 272 271 273 274 275 279
281 277 274 272 271 273 276 276 275 278 276 277 274 277 277 275 276 282 280 278 279 278 280 279 278 277 281 281 277 278 277 278 283 279 274 275 278 283 284 280 281 281 279 278 274 271 268 266 266 267 267 267 267 268
274 274 272 269 270 272 273 275 276 277 274 274 274 270 274 271 271 275 277 278 277 280 282 278 278 279 282 279 276 274 274 272 281 282 277 278 281 282 282 281 281 280 277 274 272 271 268 269 266 265 266 267 270 268
268 270 269 273 276 274 273 274 274 272 274 273 272 274 273 273 272 276 273 281 284 286 284 282 283 283 278 281 282 278 276 275 272 277 278 277 276 278 281 281 279 278 275 273 271 270 268 267 267 266 266 264 265 265
Wind_Speed
29 27 26 24 28 35 35 36 36 35 34 33 29 27 19 14 12 6 2 2 7 4 1 3 5 8 5 6 9 7 6 4 3 4 4 4 3 5 2 3 5 6 6 4 3 2 8 5 4 5 9 4 4 4
28 27 26 26 33 34 35 35 34 34 34 31 28 28 23 14 13 9 5 2 3 7 4 1 5 4 7 9 10 1 5 6 6 5 1 3 2 2 5 3 1 2 8 7 9 9 7 5 8 6 4 6 4 4
28 28 28 30 34 34 35 35 34 35 33 29 27 25 19 14 12 11 4 3 5 4 5 7 5 6 6 11 8 7 1 5 3 4 5 3 3 5 4 6 3 4 4 4 4 5 8 8 6 7 6 7 4 4
30 30 31 34 35 35 34 34 35 34 31 29 26 25 19 16 17 11 6 2 5 5 6 4 3 5 2 7 6 5 8 5 6 3 3 3 3 3 4 3 5 6 6 5 5 6 5 7 7 7 6 5 3 4
31 32 34 35 34 35 34 35 34 33 31 29 25 24 22 22 21 11 5 1 1 8 5 2 2 6 4 7 10 9 9 6 3 3 3 3 2 3 1 1 4 6 8 6 7 8 5 7 7 6 7 6 7 7
33 34 35 34 35 37 35 34 33 33 31 26 24 24 24 23 14 5 6 4 3 5 6 4 4 5 8 9 11 9 4 4 4 4 3 2 3 4 3 4 6 5 5 7 4 4 8 5 7 6 7 7 5 7
33 34 36 36 36 36 36 35 33 31 31 26 21 23 19 11 5 4 6 5 2 4 6 4 2 3 2 4 4 4 4 2 4 2 1 3 1 4 3 5 6 6 8 6 7 3 2 4 7 7 7 7 9 7
35 36 37 37 37 37 36 34 33 31 28 25 24 22 21 21 12 4 4 5 4 7 5 5 1 1 1 2 3 2 2 3 4 3 1 2 1 1 6 8 5 5 7 5 7 8 6 5 6 6 8 9 8 7
36 36 37 37 38 38 36 35 31 27 27 28 23 17 9 7 4 1 1 8 3 6 5 4 7 5 2 2 2 3 2 2 1 2 3 4 3 8 8 8 6 6 6 8 5 5 6 6 8 9 8 7 7 6
36 38 39 38 38 38 35 31 33 28 26 23 14 7 3 2 3 4 7 5 6 4 3 4 3 3 4 2 1 4 1 3 2 5 3 4 6 7 8 9 8 8 8 8 7 4 5 5 8 9 9 6 7 7
34 37 36 37 38 35 31 27 18 25 21 5 5 3 3 2 4 4 3 4 1 2 2 4 4 6 1 5 4 2 4 2 2 4 4 4 5 6 8 9 7 8 8 9 6 6 9 11 10 8 7 7 7 7
33 35 37 37 33 29 22 17 12 11 4 7 8 5 3 5 4 6 1 0 3 7 3 6 6 5 2 4 5 2 4 2 4 2 3 5 6 5 3 7 7 8 8 8 6 8 9 9 9 8 7 7 7 7
31 32 30 26 25 20 16 9 18 18 15 4 7 5 4 2 6 9 8 5 3 5 5 5 7 5 2 3 4 4 4 5 2 2 6 7 4 3 5 6 6 6 7 7 6 6 8 8 7 7 8 7 7 7
25 24 23 20 17 13 8 21 18 5 6 4 5 4 5 4 6 7 5 6 4 5 11 9 4 4 2 4 3 5 3 4 0 2 8 4 6 6 5 5 8 7 8 9 9 8 8 9 8 8 6 5 7 7
24 23 21 14 14 13 13 17 7 3 3 4 4 5 6 3 2 1 3 4 3 10 9 5 5 4 2 5 1 4 3 4 6 7 5 5 6 7 7 6 7 8 6 7 6 7 6 5 5 6 4 5 6 4
22 18 5 13 12 13 13 7 4 2 3 3 3 3 1 2 1 1 2 3 3 9 4 5 4 4 2 5 4 7 7 8 6 5 4 2 6 7 6 6 7 7 7 7 6 6 6 6 7 6 3 6 5 6
12 3 6 12 12 13 9 4 3 5 3 2 1 1 2 0 3 3 4 5 4 11 4 4 6 6 4 4 2 5 7 5 5 4 3 5 8 8 7 6 6 6 6 6 5 5 5 4 4 3 5 5 6 7
4 6 10 9 4 6 3 4 3 2 1 1 1 2 1 1 3 1 2 3 5 4 4 4 6 4 5 6 4 5 5 3 2 3 3 4 5 6 7 8 6 6 6 5 5 3 3 5 5 5 5 4 4 5
7 7 9 10 6 5 3 2 3 2 1 0 0 1 0 0 2 1 2 2 3 3 6 2 4 3 4 4 4 3 2 3 3 2 1 2 5 7 7 5 6 6 6 5 5 4 4 6 5 4 4 3 4 3
18 13 10 10 7 4 3 1 2 3 2 2 1 1 2 1 1 2 0 2 3 4 2 4 4 4 4 4 4 3 3 4 5 3 0 1 2 6 7 7 5 5 4 3 2 3 3 1 1 2 2 3 3 4
8 3 10 6 4 4 3 2 1 2 3 2 3 2 1 2 1 1 1 1 3 3 3 4 4 3 4 2 2 3 4 5 6 5 6 4 4 5 4 4 4 4 4 4 5 4 4 4 3 3 3 2 3 3
3 7 4 4 4 2 1 2 3 2 2 1 3 2 2 1 2 3 2 2 2 4 4 4 4 4 3 3 3 3 3 5 3 3 4 5 4 3 3 5 4 4 4 5 4 5 4 3 3 3 3 2 1 0
8 4 3 2 4 2 4 2 3 2 3 3 1 4 1 2 4 1 1 3 4 3 4 4 4 5 5 4 3 3 4 6 4 4 4 5 4 2 2 4 5 5 4 3 2 4 4 4 4 4 3 2 2 0
3 3 4 5 4 4 1 3 2 3 2 2 4 4 3 3 2 1 4 3 4 2 5 7 5 3 2 1 4 5 5 4 4 3 4 4 3 4 5 5 5 4 4 5 4 4 4 3 5 4 4 4 3 3
6 7 6 6 3 5 5 4 3 3 3 4 4 2 3 3 3 3 4 4 3 4 5 5 5 6 7 4 2 4 6 6 6 7 5 6 4 2 1 1 2 3 5 7 6 7 6 6 4 4 5 5 5 7
7 7 11 9 5 6 7 6 6 6 4 3 5 3 3 3 3 6 4 4 4 4 5 6 6 4 4 5 4 3 5 6 5 4 4 6 7 6 7 7 5 4 5 4 9 9 8 7 6 6 6 6 8 7
7 6 5 3 5 5 4 2 3 4 4 5 4 3 4 4 7 6 3 3 3 4 4 4 5 6 6 4 4 5 4 5 7 5 3 5 7 8 8 8 8 7 9 7 6 8 9 8 8 8 7 5 7 7
4 6 9 9 4 3 6 4 6 7 6 4 6 5 9 10 7 4 5 3 4 4 3 2 2 3 3 4 3 2 1 2 4 4 4 4 3 2 4 3 4 14 8 7 6 6 6 6 6 7 6 5 5 5
5 5 10 7 3 3 5 6 7 5 5 6 7 5 5 4 3 3 3 3 3 4 4 3 2 1 1 1 2 1 3 6 8 6 8 4 0 2 3 5 8 7 7 8 8 6 8 6 6 5 5 3 2 2
5 5 5 3 8 6 5 6 5 4 4 5 4 2 2 3 3 1 3 4 4 5 5 4 3 4 3 2 3 4 4 3 2 5 8 7 7 5 8 7 6 6 6 7 6 3 4 3 1 1 2 2 3 4
7 3 4 3 5 4 4 4 2 3 3 3 1 4 5 3 3 3 3 3 3 4 4 3 3 3 4 5 5 3 5 4 7 6 3 2 6 8 8 7 6 7 7 7 6 5 4 3 3 3 4 4 5 4
6 6 6 4 2 3 3 2 3 4 2 3 3 2 2 4 3 4 4 5 3 4 7 5 5 7 9 5 4 4 4 1 5 7 8 5 6 6 7 7 7 7 7 7 6 5 4 6 4 4 4 5 5 5
5 4 4 5 4 4 2 5 2 2 1 2 3 5 5 7 8 6 3 5 6 9 8 9 9 6 6 8 8 4 5 3 3 4 6 6 7 7 7 7 7 8 9 7 6 5 6 6 4 4 3 4 5 6
Wind_Direction
158 159 157 163 164 150 150 148 153 155 157 158 156 155 154 125 125 92 143 59 103 102 74 163 144 145 112 123 146 177 79 330 53 88 131 205 129 219 106 202 178 159 162 196 88 82 286 206 139 183 216 232 232 239
156 158 157 159 151 146 144 145 151 152 152 152 152 154 159 140 129 105 71 2 63 86 162 313 83 139 138 158 128 48 154 167 176 97 199 114 115 80 160 240 52 215 183 180 171 213 233 218 206 230 183 217 233 202
161 156 156 151 141 141 142 146 149 149 150 148 148 146 138 122 102 100 114 94 62 96 33 43 14 345 75 136 136 120 334 161 172 176 155 163 135 124 159 241 189 250 164 186 91 246 227 236 252 242 214 208 226 223
153 153 146 141 140 140 142 144 145 143 143 143 140 138 126 113 98 90 94 62 84 106 100 309 327 48 29 116 98 120 132 84 102 81 94 133 150 167 200 202 181 199 137 190 252 285 278 267 234 216 194 193 144 127
147 142 139 136 137 138 139 143 141 139 138 138 133 122 113 97 83 77 79 343 146 116 143 135 324 10 23 107 98 102 113 108 91 66 78 196 154 115 225 87 237 184 186 168 219 228 191 240 219 178 174 182 168 138
138 136 133 135 136 136 137 139 138 137 137 130 119 117 114 117 123 102 48 338 327 109 100 89 291 11 37 81 86 87 89 87 93 131 191 230 242 114 160 227 252 213 196 165 219 227 214 245 216 177 179 163 160 132
129 130 129 133 133 134 135 136 135 132 126 118 105 111 110 107 70 108 176 175 125 82 91 83 61 342 40 65 53 47 32 88 105 126 155 167 248 120 171 226 231 205 199 203 224 194 170 176 205 184 137 123 117 113
130 131 133 134 133 131 131 130 125 123 123 115 110 111 112 100 110 48 345 65 88 87 80 105 114 91 39 51 76 1 67 27 19 153 67 175 25 120 252 234 231 231 239 265 255 198 206 172 111 111 126 131 130 137
131 133 132 132 130 128 125 121 121 123 126 122 121 107 71 40 68 145 125 80 60 110 113 109 145 195 131 104 104 39 78 68 314 165 238 115 203 222 227 208 207 207 180 173 180 151 124 136 142 143 141 143 140 161
129 130 130 129 128 123 123 125 128 130 139 123 105 72 78 227 244 86 10 31 23 352 66 109 130 159 117 131 42 96 8 164 177 238 110 198 250 237 225 211 197 199 183 152 129 114 114 145 160 165 178 171 171 176
120 123 127 127 125 125 127 128 128 126 113 62 80 94 184 215 71 41 56 101 308 49 116 150 153 133 266 109 142 196 175 169 159 252 157 248 268 243 215 204 199 187 194 194 198 182 180 169 168 161 168 179 174 174
116 120 122 121 124 131 128 120 88 100 109 164 122 106 89 56 57 101 171 190 185 204 164 145 161 147 173 129 112 212 143 116 225 135 96 265 249 250 223 199 184 178 174 180 181 175 163 158 158 165 171 182 190 191
115 116 119 124 126 120 117 100 105 124 130 62 62 71 90 325 58 167 187 214 191 165 174 153 135 134 104 71 74 123 112 203 90 74 229 229 247 246 187 143 143 154 147 136 126 134 140 148 151 165 187 201 184 188
119 117 110 105 106 111 118 122 115 59 68 85 119 116 165 198 225 192 182 164 193 129 143 137 106 135 165 86 145 108 185 111 135 234 237 241 217 193 174 144 123 156 155 154 159 159 165 169 189 198 208 181 172 197
107 111 109 107 111 101 109 98 74 54 97 103 107 175 196 215 212 201 127 97 189 152 133 102 73 102 54 100 183 117 115 232 210 229 229 232 197 166 167 161 154 157 160 158 161 169 187 184 188 225 227 204 197 148
116 99 70 124 105 85 83 75 37 70 64 88 101 95 87 96 358 56 141 168 206 146 96 70 120 96 160 130 132 198 170 215 242 218 226 201 166 166 170 171 176 171 171 173 172 180 180 182 200 218 179 205 202 190
83 89 143 113 104 89 84 78 40 43 57 57 285 131 158 74 162 182 171 179 160 152 144 124 109 185 110 101 206 185 204 216 212 236 216 201 175 177 169 166 170 174 180 188 180 188 200 201 169 178 233 243 210 213
79 150 140 129 101 69 46 43 76 81 89 348 79 269 131 237 121 155 138 154 139 132 138 166 134 146 158 172 228 234 228 251 232 248 208 169 153 152 158 172 175 177 179 185 191 193 184 176 194 228 240 249 227 230
142 128 93 67 92 92 86 33 73 124 205 179 55 19 87 222 258 25 136 149 128 130 110 54 110 160 200 211 206 223 209 185 183 171 199 138 159 156 161 155 160 168 180 184 188 202 203 200 209 214 217 173 226 242
101 88 71 56 56 74 77 14 58 115 174 214 97 121 106 167 60 10 335 105 103 106 129 166 185 194 183 219 196 195 197 146 124 85 84 257 186 154 166 163 179 177 164 176 170 144 145 155 224 204 204 208 204 251
77 44 46 48 44 61 105 133 149 189 146 157 138 115 116 32 54 249 161 293 82 173 174 203 189 183 188 161 151 162 169 156 185 173 181 183 218 184 183 191 165 158 170 183 186 202 175 193 195 168 145 215 229 216
88 85 78 30 77 34 72 215 160 170 107 137 120 117 94 72 230 227 163 63 215 225 182 163 184 161 165 178 194 196 184 174 144 124 92 107 128 169 211 201 155 195 194 195 180 186 194 192 151 140 153 195 229 223
96 58 59 72 80 72 222 117 115 158 128 167 109 111 135 226 232 124 171 215 241 228 182 172 175 171 179 197 182 213 175 158 180 200 197 210 216 208 146 172 175 166 190 237 161 148 171 159 152 156 178 182 207 139
74 102 138 173 151 197 144 176 146 127 105 160 159 166 188 195 200 98 234 229 233 188 172 188 167 151 43 167 203 196 205 181 198 217 204 175 200 238 200 204 187 195 178 136 136 150 165 163 164 168 185 199 207 205
141 180 158 178 197 142 157 148 158 105 162 181 155 212 179 154 163 219 242 253 213 206 202 178 174 196 212 217 245 229 195 178 191 211 220 187 175 65 64 174 231 220 146 136 155 171 177 178 178 187 207 220 223 229
190 181 175 170 159 149 172 145 168 172 144 156 203 154 122 117 141 236 236 215 212 188 186 187 189 188 226 198 215 217 227 192 171 197 236 190 190 181 192 179 181 236 200 158 150 172 178 187 186 194 215 225 232 234
198 171 170 172 149 128 110 105 114 111 144 170 175 142 116 165 229 246 267 231 185 210 182 174 170 191 211 214 223 236 226 163 179 204 212 182 200 201 179 174 190 204 160 161 160 160 171 177 204 212 224 224 233 229
170 168 152 166 141 157 138 133 149 175 178 188 126 165 178 195 221 229 210 217 178 147 129 112 165 189 198 210 215 213 291 133 112 93 69 42 22 104 112 82 88 138 143 153 152 146 148 164 190 207 213 228 237 226
179 167 132 143 122 153 174 165 188 186 165 156 169 184 212 218 218 198 223 189 141 130 133 149 230 159 276 341 344 216 158 157 138 149 173 189 83 280 150 134 143 140 144 155 163 155 160 152 170 189 216 204 207 224
168 152 106 136 149 178 216 172 176 189 171 163 154 85 23 293 248 204 118 127 149 185 196 177 160 160 199 212 270 276 236 218 213 166 174 189 206 152 160 159 154 151 148 148 147 132 120 116 116 78 183 209 213 222
134 108 99 119 180 214 191 170 69 91 100 152 14 153 198 240 310 229 211 193 143 111 133 171 196 188 173 188 199 218 271 226 219 228 237 119 138 160 166 163 157 151 151 146 144 143 138 140 164 178 201 222 247 241
121 157 135 113 250 292 36 120 145 164 180 147 216 76 63 50 242 275 212 135 128 189 213 182 185 224 210 213 186 200 176 242 187 192 182 176 174 167 160 154 153 146 138 143 148 151 158 168 170 185 205 233 238 247
88 106 99 102 127 163 200 113 171 173 149 204 240 188 189 171 212 242 285 217 194 206 202 202 214 217 185 192 204 185 174 193 214 181 161 144 143 147 151 153 146 146 145 147 153 155 166 159 180 199 207 224 249 256